Find Starlink 32661

NORAD ID: 62899 Int'l Des: 2025-024 Owner: SPXS Country: US Constellation: starlink operational
LEOCIRCULAR

現在のビュー

3D地球を読み込み中...

About Starlink 32661

Starlink 32661 (NORAD 62899) is a starlink constellation satellite (v2 mini) launched Feb 4, 2025 by SPXS of US. It operates in LEO, CIRCULAR orbit with a mass of 730.00 kg.

次回通過

Passes for default location (London). Set your location on the main map for personalized predictions.

高度履歴

Loading altitude history...

軌道要素

1 62899U 25024W 26264.37195581 .00009857 00000-0 36714-3 0 9999
2 62899 43.0001 300.1955 0001635 258.6046 101.4622 15.27588637 92192
Epoch: Sep 21, 2026 • Age: 26 hours

現在のステータス

高度 494.6 km
遠地点 / 近地点 N/A
速度 7.62 km/s
衛星直下点 -41.65°S, 16.97°E
打ち上げ日 Feb 4, 2025
運用期間 1.6 years
タイプ internet

技術仕様

分類 Payload
質量 730.00 kg
乾燥質量 700.00 kg
長さ 0.30 m
スパン 29.00 m
形状 ? Box + pan
製造者 SPXS
バスタイプ Starlink V2M
フェーズステータス In Orbit
所有者/国 SPXS/US

Most Searched